Temperature
-11 -11 -11 -11 -11 -11 -11 -10 -10 -10 -9 -9 -8 -8 -8 -7 -6 -6 -5 -5 -4 -3 -2 -1 1 3 4 6 7 9 10 11 13 14 14 14 14 15
-11 -11 -11 -12 -12 -11 -11 -11 -10 -10 -10 -9 -9 -9 -8 -8 -7 -7 -6 -5 -5 -3 -2 -1 1 3 4 5 7 8 10 11 12 13 14 14 14 14
-11 -11 -12 -12 -12 -12 -12 -11 -10 -10 -10 -10 -9 -9 -9 -8 -8 -7 -7 -5 -4 -3 -2 -1 0 2 3 5 6 8 9 10 12 13 13 14 14 14
-11 -12 -12 -13 -13 -12 -12 -11 -11 -10 -10 -10 -10 -9 -9 -9 -8 -8 -7 -6 -4 -3 -2 -1 0 2 3 4 6 7 9 10 11 12 13 13 14 14
-11 -12 -12 -12 -12 -12 -12 -11 -11 -11 -10 -11 -10 -10 -10 -9 -9 -8 -7 -6 -4 -3 -2 -1 0 1 3 4 6 7 8 10 11 12 12 13 13 14
-11 -12 -12 -12 -12 -12 -11 -11 -11 -10 -11 -11 -11 -10 -10 -10 -9 -9 -7 -6 -5 -3 -2 -1 0 1 3 4 6 7 8 9 10 11 12 13 13 14
-11 -11 -12 -12 -12 -12 -11 -11 -10 -11 -11 -11 -11 -11 -11 -10 -10 -10 -9 -7 -4 -3 -2 -1 0 1 3 4 5 6 7 9 10 11 12 13 13 13
-11 -11 -12 -12 -12 -12 -11 -11 -11 -11 -11 -11 -11 -11 -11 -11 -11 -10 -10 -9 -6 -3 -2 -1 0 1 2 4 5 6 7 8 9 11 11 12 13 13
-11 -11 -12 -12 -12 -11 -11 -12 -12 -12 -12 -11 -11 -11 -11 -11 -11 -11 -10 -9 -7 -4 -3 -1 0 1 2 4 5 6 7 8 9 10 11 12 12 13
-11 -11 -12 -12 -12 -11 -11 -12 -12 -12 -12 -12 -12 -12 -11 -11 -11 -11 -11 -9 -6 -4 -3 -2 1 2 3 3 5 6 7 8 9 10 11 12 12 12
-11 -12 -12 -12 -12 -11 -12 -12 -12 -12 -12 -12 -12 -12 -11 -11 -11 -11 -10 -9 -7 -4 -3 -2 0 2 3 3 4 5 7 8 9 10 11 11 12 12
-11 -11 -12 -12 -11 -11 -12 -12 -12 -12 -12 -12 -12 -12 -12 -12 -11 -11 -10 -10 -9 -6 -3 -2 -0 2 3 4 4 5 7 8 8 9 10 11 12 12
-11 -11 -12 -12 -11 -12 -12 -12 -12 -12 -13 -13 -13 -13 -12 -12 -11 -11 -10 -9 -8 -6 -3 -2 -1 1 3 4 4 5 6 8 8 9 10 11 11 12
-11 -11 -11 -11 -11 -12 -12 -12 -12 -13 -13 -13 -13 -13 -12 -12 -11 -10 -9 -8 -6 -5 -3 -3 -1 1 2 4 4 5 6 7 8 9 10 10 11 11
-11 -11 -11 -11 -12 -12 -12 -12 -13 -13 -13 -13 -13 -13 -12 -12 -11 -9 -8 -7 -5 -4 -3 -2 -1 0 2 3 4 5 6 7 8 9 10 10 10 11
-10 -10 -11 -11 -11 -12 -12 -12 -13 -13 -13 -13 -13 -13 -12 -11 -10 -9 -7 -6 -5 -4 -3 -2 -1 0 2 3 4 5 5 6 8 8 9 10 10 10
-10 -10 -10 -11 -11 -11 -11 -12 -12 -13 -13 -13 -13 -13 -12 -11 -10 -9 -7 -6 -5 -3 -2 -2 -1 -0 1 2 3 4 5 6 7 8 9 10 10 10
-10 -10 -11 -11 -11 -11 -11 -11 -12 -12 -13 -13 -13 -13 -12 -12 -11 -9 -7 -6 -5 -4 -3 -2 -1 0 1 2 3 4 5 5 7 8 9 9 10 10
-10 -10 -10 -11 -11 -11 -11 -11 -11 -12 -12 -12 -13 -13 -12 -12 -11 -9 -8 -6 -5 -4 -3 -2 -1 -0 1 2 2 3 4 5 6 7 8 9 9 9
-10 -10 -10 -10 -10 -11 -11 -11 -11 -11 -11 -12 -12 -12 -12 -12 -11 -10 -9 -7 -5 -4 -3 -2 -1 -1 0 1 2 2 3 4 5 6 7 8 8 9
-10 -10 -10 -10 -10 -10 -10 -10 -10 -11 -11 -11 -12 -12 -12 -11 -11 -10 -9 -8 -6 -4 -3 -2 -2 -1 -0 0 1 2 3 4 5 6 6 7 7 7
-10 -10 -10 -10 -10 -10 -10 -10 -10 -10 -10 -11 -11 -11 -11 -11 -11 -10 -10 -9 -7 -6 -4 -3 -2 -1 -0 0 1 1 2 3 4 4 5 6 7 6
-10 -10 -10 -10 -10 -10 -10 -10 -10 -10 -10 -10 -11 -11 -11 -11 -11 -10 -10 -9 -8 -7 -5 -4 -2 -1 -1 0 1 1 1 2 3 3 4 5 6 7
Wind_Speed
9 10 9 10 11 11 11 11 10 11 11 8 8 9 9 11 16 15 12 19 23 23 23 23 22 22 21 18 17 15 14 13 12 19 29 34 37 38
8 9 9 10 10 10 10 11 10 9 10 7 9 10 11 13 19 16 15 22 24 25 25 24 23 23 21 19 17 15 14 11 10 14 25 32 34 34
9 10 11 12 10 10 11 10 10 9 11 10 8 10 12 12 11 12 14 13 16 24 25 24 23 22 21 19 16 15 14 12 9 11 19 27 30 31
11 10 11 12 11 11 10 11 11 9 9 13 11 10 12 12 11 11 12 13 12 21 24 24 22 21 21 19 17 15 13 11 9 11 15 22 27 30
11 11 12 11 12 12 12 12 11 10 7 10 12 10 10 10 10 11 13 11 13 16 20 21 22 21 20 19 17 14 12 10 9 10 12 17 22 26
12 12 11 11 12 12 12 12 11 9 8 9 10 10 9 9 8 10 12 11 12 13 14 15 17 20 21 20 18 14 11 10 9 10 12 14 19 25
12 11 11 15 18 16 14 11 10 7 8 9 10 10 9 8 8 9 12 12 13 8 8 9 9 8 10 16 16 13 11 11 10 10 12 14 18 23
10 9 9 11 17 23 25 22 17 11 10 9 8 8 9 8 8 10 11 12 8 7 9 10 8 8 8 8 12 12 10 10 10 11 13 14 17 20
8 7 8 10 16 12 16 16 16 19 19 13 9 9 10 9 10 11 10 12 12 11 10 9 7 8 7 9 13 12 10 9 10 12 14 15 17 18
7 6 7 8 13 16 9 8 9 10 14 10 9 10 11 10 10 11 12 12 13 12 10 6 7 6 7 6 11 11 10 10 10 12 15 17 17 18
7 7 9 8 19 22 12 11 11 10 13 17 18 16 17 16 12 7 7 9 8 5 3 4 5 4 4 6 8 11 9 11 12 13 16 18 18 16
6 7 13 16 20 21 10 10 13 10 9 12 13 14 11 12 14 7 5 7 6 5 4 5 4 3 3 3 4 5 6 8 11 14 17 19 20 13
7 6 8 19 20 20 17 10 16 14 10 10 9 8 7 6 7 7 7 8 8 7 5 5 4 4 2 2 3 3 4 4 6 9 15 20 20 16
8 8 10 20 20 20 15 18 21 17 9 9 9 8 8 7 7 8 9 10 11 13 12 8 5 5 3 0 2 2 2 3 4 6 10 17 18 16
8 16 18 20 18 13 17 21 17 11 10 10 10 10 9 9 9 8 7 8 10 12 12 12 10 8 5 2 1 2 1 2 4 6 9 13 12 15
9 13 18 18 15 15 14 12 10 10 11 10 10 10 9 9 7 7 6 5 4 5 6 7 8 7 4 2 1 1 1 1 3 6 8 9 10 11
9 5 6 8 8 8 8 8 8 9 11 11 10 10 10 10 9 8 5 5 3 4 4 3 4 4 2 2 1 2 1 1 2 4 7 9 9 11
10 8 9 10 10 10 10 10 9 10 11 11 11 11 10 10 10 8 7 5 5 5 5 5 4 2 1 3 8 3 2 1 2 3 5 8 8 10
7 7 8 9 10 10 9 8 8 9 9 10 11 11 11 10 10 9 9 8 7 6 5 5 5 4 2 3 6 11 3 2 3 4 4 6 6 9
6 7 8 9 10 10 9 8 7 8 8 8 9 10 11 10 10 10 10 9 8 7 6 5 6 5 3 2 3 6 12 4 4 6 5 7 8 12
8 8 8 9 10 9 9 8 7 7 7 7 8 9 10 9 10 10 10 14 10 7 8 7 6 8 3 1 3 4 8 15 13 7 5 9 9 8
8 9 9 9 10 9 9 8 7 6 6 6 7 8 8 9 10 11 11 10 8 7 7 7 7 5 3 3 6 5 5 8 15 21 19 10 6 8
7 8 9 9 9 9 8 8 8 6 5 5 6 7 8 8 8 9 9 10 9 9 8 7 6 5 4 4 5 6 9 9 9 13 14 19 26 31
Wind_Direction
302 303 307 309 308 305 300 295 288 297 304 303 311 315 319 314 310 305 294 291 287 283 280 277 277 278 281 286 290 293 298 284 254 215 204 203 205 204
300 301 305 306 307 308 308 307 301 297 301 302 307 309 313 312 308 310 309 299 291 286 280 273 269 269 271 275 282 287 290 285 257 222 207 203 203 201
297 302 302 304 305 310 310 310 311 306 305 307 306 306 303 302 301 301 301 293 285 280 276 271 264 262 262 265 271 279 284 283 261 229 210 204 201 198
290 292 295 303 303 305 305 305 305 302 303 311 311 310 305 303 303 308 308 300 288 279 273 269 263 257 255 257 260 269 276 279 268 238 215 204 200 196
280 282 286 291 296 298 297 298 299 303 301 302 306 307 306 310 316 315 311 306 301 289 278 267 259 253 249 249 250 258 265 268 264 243 218 205 198 193
274 276 278 282 285 288 296 295 297 298 298 299 301 304 307 312 322 322 318 317 311 300 287 275 258 249 243 242 242 247 256 259 255 247 220 201 195 190
271 273 277 297 310 313 314 311 307 302 303 300 298 303 308 318 319 319 315 316 308 296 309 290 268 244 230 234 232 236 242 245 242 240 217 196 191 188
274 274 283 302 311 320 318 320 327 320 308 301 300 301 300 303 308 309 312 313 311 327 335 304 277 248 225 218 216 219 229 238 236 230 209 190 185 183
286 287 305 314 320 303 308 327 327 321 317 311 302 290 289 289 294 297 296 297 289 294 304 290 268 247 225 216 207 211 225 236 235 221 199 185 181 179
294 294 294 298 308 317 337 327 309 305 306 306 286 279 278 272 266 275 285 293 289 276 253 263 269 247 219 205 201 206 222 232 228 213 193 181 177 177
307 313 319 307 316 334 347 329 316 309 322 324 319 314 309 305 297 289 289 297 299 293 281 267 276 258 208 198 197 200 217 223 214 203 190 179 172 167
313 318 326 324 329 340 345 329 322 331 335 326 322 316 309 303 303 291 273 279 283 288 312 325 291 274 199 184 185 193 204 208 201 196 186 178 167 165
319 317 314 325 336 341 344 333 339 351 336 323 317 310 303 290 282 269 253 251 255 261 289 331 302 298 263 161 167 185 191 192 188 187 183 175 169 168
325 316 315 330 339 342 342 344 351 349 334 330 327 323 317 307 294 280 263 248 242 248 262 277 277 295 311 167 145 160 179 183 178 177 176 171 169 165
331 335 338 341 342 338 339 348 351 342 340 338 333 327 320 308 303 296 279 263 252 248 251 249 249 269 279 276 124 129 135 177 175 169 169 170 171 167
329 335 340 340 342 340 342 342 342 344 348 338 332 329 326 325 322 320 311 305 286 278 259 251 254 259 276 301 46 113 137 175 164 160 158 157 159 162
342 334 330 334 339 338 338 340 342 346 350 346 344 342 342 343 342 339 332 329 330 332 328 316 285 263 270 3 52 82 90 79 118 141 153 148 153 157
356 341 341 341 341 340 340 341 344 347 350 350 351 349 348 349 350 349 352 352 353 349 346 340 335 324 353 42 28 42 50 52 69 102 142 140 144 147
358 341 340 339 337 336 335 336 338 338 341 348 352 353 353 354 357 358 360 359 356 352 352 355 359 2 42 42 14 15 33 56 79 75 93 115 128 141
346 340 339 337 336 335 334 334 334 336 341 347 352 354 356 358 2 2 2 2 357 353 358 6 11 10 15 11 23 14 19 47 95 98 93 93 89 102
341 339 336 335 333 332 330 329 329 333 339 346 350 354 356 359 3 3 1 5 8 359 359 354 337 334 322 4 69 42 30 45 63 78 101 114 110 116
336 334 333 330 330 329 329 329 330 333 341 347 349 352 355 359 3 2 2 2 1 355 344 338 336 348 17 66 93 90 65 57 55 54 51 67 120 137
327 327 326 326 327 328 330 331 332 337 345 351 351 353 356 359 360 2 1 2 2 360 357 357 0 14 35 68 90 91 84 75 70 68 60 74 91 102
Height
1451 1446 1440 1434 1429 1424 1419 1414 1409 1402 1396 1393 1391 1388 1386 1384 1382 1381 1380 1379 1378 1377 1378 1379 1382 1385 1389 1393 1397 1402 1407 1412 1419 1426 1434 1443 1453 1464
1447 1441 1435 1430 1424 1419 1415 1411 1407 1402 1396 1391 1388 1385 1382 1380 1377 1376 1373 1372 1370 1370 1371 1372 1375 1378 1382 1386 1391 1395 1400 1406 1411 1418 1426 1435 1445 1455
1443 1437 1431 1425 1420 1415 1411 1407 1403 1400 1394 1388 1385 1381 1378 1375 1372 1369 1366 1364 1363 1362 1364 1365 1368 1371 1375 1379 1384 1389 1394 1399 1405 1411 1418 1427 1437 1447
1437 1432 1427 1421 1416 1411 1407 1403 1399 1396 1392 1385 1379 1377 1374 1371 1367 1364 1360 1358 1356 1356 1357 1358 1361 1364 1368 1372 1377 1382 1387 1393 1399 1405 1412 1420 1428 1439
1432 1427 1422 1417 1412 1407 1403 1398 1395 1391 1387 1382 1376 1372 1369 1366 1362 1358 1355 1352 1350 1350 1350 1352 1354 1357 1360 1365 1370 1376 1381 1387 1393 1398 1405 1412 1421 1430
1426 1422 1418 1414 1409 1404 1399 1395 1390 1386 1382 1377 1372 1368 1365 1362 1358 1353 1348 1346 1344 1344 1344 1345 1347 1350 1354 1358 1364 1369 1374 1380 1386 1392 1398 1405 1413 1422
1421 1417 1414 1410 1406 1401 1396 1391 1386 1381 1377 1372 1368 1364 1360 1357 1354 1350 1346 1341 1340 1340 1339 1340 1341 1344 1346 1351 1357 1362 1368 1374 1380 1386 1392 1399 1406 1415
1417 1413 1410 1406 1401 1397 1391 1387 1382 1377 1372 1368 1363 1359 1355 1353 1349 1346 1343 1340 1336 1336 1335 1335 1337 1338 1341 1345 1350 1356 1362 1368 1374 1380 1387 1393 1401 1408
1414 1410 1406 1402 1397 1391 1386 1382 1377 1373 1369 1365 1359 1354 1350 1347 1345 1342 1339 1337 1333 1332 1332 1330 1332 1333 1336 1339 1344 1350 1356 1362 1368 1375 1382 1388 1396 1403
1411 1407 1402 1398 1393 1388 1382 1377 1372 1368 1363 1359 1354 1349 1346 1343 1341 1338 1336 1332 1329 1329 1329 1327 1327 1328 1331 1334 1338 1344 1351 1357 1363 1369 1376 1384 1391 1398
1408 1404 1400 1395 1390 1385 1379 1373 1368 1362 1357 1352 1348 1344 1341 1338 1337 1335 1332 1329 1326 1325 1326 1325 1324 1324 1326 1329 1334 1339 1345 1351 1357 1363 1371 1380 1388 1394
1406 1401 1397 1393 1388 1383 1377 1371 1365 1359 1352 1346 1342 1338 1335 1332 1331 1330 1327 1326 1324 1322 1322 1321 1320 1321 1323 1324 1329 1334 1340 1346 1352 1358 1367 1376 1384 1391
1403 1399 1394 1390 1386 1381 1376 1370 1364 1357 1350 1344 1339 1334 1331 1328 1325 1324 1323 1321 1320 1319 1319 1318 1316 1317 1318 1321 1325 1329 1334 1340 1347 1354 1362 1371 1379 1387
1403 1397 1393 1389 1385 1379 1374 1369 1363 1355 1348 1343 1337 1332 1328 1324 1321 1319 1317 1316 1316 1316 1316 1315 1313 1314 1315 1318 1321 1325 1330 1336 1343 1349 1358 1367 1376 1385
1402 1397 1393 1388 1383 1377 1373 1368 1361 1354 1348 1342 1336 1331 1326 1322 1318 1315 1314 1313 1313 1313 1313 1312 1312 1312 1314 1316 1318 1323 1327 1333 1339 1346 1354 1363 1371 1380
1401 1397 1392 1387 1382 1377 1372 1366 1360 1355 1349 1342 1336 1331 1325 1320 1316 1313 1312 1311 1311 1311 1311 1311 1312 1312 1312 1314 1317 1321 1325 1330 1336 1343 1350 1360 1369 1377
1401 1396 1391 1386 1381 1376 1371 1366 1361 1355 1349 1343 1337 1331 1325 1320 1316 1313 1311 1310 1310 1310 1310 1311 1311 1312 1313 1316 1318 1320 1324 1328 1333 1340 1348 1356 1366 1375
1401 1396 1391 1386 1382 1377 1372 1367 1362 1356 1351 1345 1339 1333 1327 1322 1317 1314 1312 1311 1311 1311 1311 1311 1311 1312 1314 1315 1317 1321 1323 1327 1332 1339 1346 1353 1363 1373
1400 1396 1392 1387 1383 1378 1373 1368 1364 1359 1354 1348 1342 1335 1330 1325 1320 1317 1314 1312 1311 1311 1312 1313 1313 1313 1314 1316 1320 1322 1325 1327 1332 1337 1344 1352 1360 1370
1400 1396 1392 1388 1384 1380 1375 1370 1366 1361 1356 1351 1345 1339 1333 1328 1324 1320 1317 1315 1314 1313 1314 1314 1315 1316 1318 1319 1321 1324 1327 1330 1334 1338 1343 1351 1360 1370
1400 1397 1393 1389 1385 1381 1377 1372 1368 1363 1358 1353 1348 1343 1337 1332 1328 1324 1321 1319 1317 1316 1316 1316 1318 1320 1321 1323 1324 1326 1329 1332 1336 1340 1345 1350 1358 1367
1400 1397 1394 1390 1386 1382 1378 1374 1369 1365 1360 1356 1351 1346 1341 1336 1332 1328 1325 1322 1321 1320 1319 1320 1320 1322 1324 1326 1328 1331 1334 1337 1340 1344 1349 1353 1357 1365
1401 1398 1394 1391 1387 1383 1379 1375 1371 1367 1363 1359 1355 1350 1345 1341 1336 1332 1329 1326 1324 1323 1322 1323 1324 1325 1327 1330 1332 1335 1337 1340 1344 1347 1353 1357 1362 1369